Tracking 28052 objects as of 25-Sep-2023
HD Live streaming from Space Station
objects crossing your sky now

SCOUT B-1 R/B

Track SCOUT B-1 R/B now!
10-day predictions


NORAD ID: 6180
Int'l Code: 1972-069B
Perigee: 646.2 km
Apogee: 704.8 km
Inclination: 90.0 °
Period: 98.1 minutes
Semi major axis: 7046 km
RCS: 0.7995 m2 (medium)
Launch date: September 2, 1972
Source: United States (US)
Launch site: AIR FORCE WESTERN TEST RANGE (AFWTR)

Note: This is a ROCKET BODY
Your satellite tracking list
Your tracking list is empty




NASA's NSSDC Master Catalog

Two Line Element Set (TLE):
1  6180U 72069B   23267.85335941  .00004286  00000-0  74076-3 0  9994
2  6180  90.0136 215.3480 0041547  70.6802 289.8901 14.67721624701839
Source of the keplerian elements: AFSPC